Flag for Australia Weather past 2 weeks in The Settlement, Christmas Island, Australia

Now
79 °F

Scattered clouds.


Feels Like: 81 °F
Forecast: 71 / 76 °F
Wind: 17 mph from Southeast

Location: Christmas Island Aerodrome

Current Time: Aug 29, 2015 at 1:24:57 PM

Latest Report: Aug 29, 2015 at 1:00 PM


Visibility: N/A

Pressure: 29.98 "Hg

Humidity: 65%

Dew point: 66 °F

Location of The SettlementLocation

Historic Weather in The Settlement — Graph

°F

The Settlement temperature yesterday

Maximum temperature yesterday: 79 °F (at 12:00 PM)
Minimum temperature yesterday: 73 °F (at 12:00 AM)
Average temperature yesterday: 75 °F

Past Weeks' High & Low Weather Summary

 TemperatureHumidityPressure
High81 °F (Aug 16, 12:00 PM)100% (Aug 23, 7:04 AM)30.07 "Hg (Aug 23, 7:04 AM)
Low70 °F (Aug 23, 7:04 AM)61% (Aug 20, 11:00 AM)29.92 "Hg (Aug 14, 2:00 PM)
Average75 °F80%29.99 "Hg
* Reported Aug 14 12:00 Noon — Aug 29 12:00 Noon, The Settlement, Weather by CustomWeather, © 2015

Note: Actual official high and low records may vary slightly from our data, if they occured in-between our weather recording intervals... More about our weather records

Advertising

The Settlement weather history for previous 24 hours

 ConditionsComfort  
Time TempWeatherWind HumidityBarometerVisibility
12:00 PM
Sat, Aug 29
79 °FSunny.18 mph70%29.98 "HgN/A
11:00 AM79 °FSunny.18 mph65%30.01 "HgN/A
10:00 AM77 °FBroken clouds.17 mph69%30.04 "HgN/A
9:00 AM79 °FSunny.15 mph65%30.04 "HgN/A
8:00 AM75 °FScattered clouds.16 mph78%30.01 "HgN/A
7:00 AM75 °FSunny.17 mph74%29.98 "HgN/A
6:00 AM73 °FOvercast.16 mph83%29.98 "HgN/A
5:00 AM73 °FMostly cloudy.13 mph83%29.98 "HgN/A
4:01 AM73 °FPassing clouds.14 mph83%29.95 "HgN/A
3:03 AM73 °FPartly cloudy.15 mph83%29.98 "HgN/A
2:00 AM73 °FPartly cloudy.15 mph89%29.98 "HgN/A
1:00 AM73 °FPassing clouds.15 mph89%29.98 "HgN/A
12:00 AM73 °FMostly cloudy.15 mph89%30.01 "HgN/A
11:00 PM
Fri, Aug 28
73 °FPassing clouds.15 mph89%30.01 "HgN/A
10:00 PM73 °FPassing clouds.15 mph89%30.01 "HgN/A
9:00 PM73 °FPassing clouds.15 mph89%30.01 "HgN/A
8:00 PM75 °FPassing clouds.15 mph83%30.01 "HgN/A
7:00 PM75 °FPassing clouds.13 mph89%29.98 "HgN/A
6:00 PM75 °FPartly cloudy.14 mph83%29.95 "HgN/A
5:00 PM75 °FLow clouds.13 mph89%29.95 "HgN/A
4:00 PM77 °FMostly cloudy.15 mph83%29.95 "HgN/A
3:00 PM77 °FMostly cloudy.15 mph79%29.95 "HgN/A
2:00 PM77 °FMostly cloudy.15 mph83%29.95 "HgN/A
1:00 PM77 °FMostly cloudy.15 mph79%29.98 "HgN/A
Weather by CustomWeather, © 2015

See weather overviewHow to use our weather pages